Flag for Switzerland Weather past 2 weeks in Burgdorf, Bern, Switzerland

Now
59 °F

Partly sunny.


Feels Like: 60 °F
Forecast: 42 / 59 °F
Wind: 3 mph from North

Location: Bern / Belp

Current Time: Sep 5, 2015 at 3:28:34 PM

Latest Report: Sep 5, 2015 at 2:50 PM


Visibility: N/A

Pressure: 30.09 "Hg (28.23 "Hg at 539m altitude)

Humidity: 51%

Dew point: 41 °F

Location of BurgdorfLocation

Historic Weather in Burgdorf — Graph

°F

Burgdorf temperature yesterday

Maximum temperature yesterday: 70 °F (at 4:20 PM)
Minimum temperature yesterday: 48 °F (at 5:50 AM)
Average temperature yesterday: 60 °F

Past Weeks' High & Low Weather Summary

 TemperatureHumidityPressure
High90 °F (Aug 29, 6:20 PM)100% (Aug 21, 10:50 PM)30.21 "Hg (Aug 21, 10:50 PM)
Low48 °F (Aug 22, 5:50 AM)31% (Aug 31, 4:20 PM)29.74 "Hg (Aug 24, 4:20 AM)
Average65 °F78%30.03 "Hg
* Reported Aug 21 2:20 PM — Sep 5 2:20 PM, Burgdorf, Weather by CustomWeather, © 2015

Note: Actual official high and low records may vary slightly from our data, if they occured in-between our weather recording intervals... More about our weather records

Advertising

Burgdorf weather history for previous 24 hours

 ConditionsComfort  
Time TempWeatherWind HumidityBarometerVisibility
2:20 PM
Sat, Sep 5
59 °FPartly sunny.3 mph51%30.09 "HgN/A
1:50 PM61 °FPartly sunny.1 mph55%30.09 "HgN/A
1:20 PM59 °FPartly sunny.2 mph63%30.09 "HgN/A
12:50 PM61 °FBroken clouds.3 mph55%30.09 "HgN/A
12:20 PM59 °FPartly sunny.3 mph51%30.09 "HgN/A
11:50 AM59 °FOvercast.1 mph59%30.09 "HgN/A
11:20 AM57 °FPartly sunny.3 mph63%30.09 "HgN/A
10:50 AM57 °FPartly sunny.2 mph72%30.07 "HgN/A
10:20 AM57 °FPartly sunny.2 mph72%30.07 "HgN/A
9:50 AM55 °FPartly sunny.2 mph72%30.07 "HgN/A
9:20 AM55 °FPartly sunny.3 mph72%30.07 "HgN/A
8:50 AM55 °FLight rain. Partly sunny.3 mph67%30.04 "HgN/A
8:20 AM55 °FPartly sunny.3 mph67%30.04 "HgN/A
7:50 AM55 °FPassing clouds.1 mph67%30.04 "HgN/A
7:20 AM55 °FPassing clouds.1 mph67%30.04 "HgN/A
6:50 AM55 °FPassing clouds.3 mph67%30.01 "HgN/A
6:20 AM55 °FPassing clouds.2 mph72%30.01 "HgN/A
5:20 AM55 °FOvercast.2 mph77%30.01 "HgN/A
4:50 AM55 °FOvercast.1 mph82%30.01 "HgN/A
4:20 AM55 °FPartly cloudy.1 mph77%30.01 "HgN/A
3:50 AM55 °FOvercast.2 mph82%30.01 "HgN/A
3:20 AM55 °FPassing clouds.2 mph82%30.01 "HgN/A
2:50 AM55 °FOvercast.2 mph82%30.04 "HgN/A
2:20 AM57 °FPassing clouds.2 mph72%30.04 "HgN/A
1:50 AM57 °FOvercast.2 mph67%30.04 "HgN/A
1:20 AM57 °FOvercast.3 mph63%30.04 "HgN/A
12:50 AM59 °FOvercast.3 mph59%30.01 "HgN/A
12:20 AM59 °FOvercast.5 mph59%30.04 "HgN/A
11:20 PM
Fri, Sep 4
59 °FOvercast.7 mph63%30.01 "HgN/A
10:50 PM59 °FOvercast.8 mph59%30.01 "HgN/A
10:20 PM61 °FOvercast.7 mph55%30.01 "HgN/A
9:50 PM61 °FOvercast.3 mph55%30.01 "HgN/A
9:20 PM61 °FPassing clouds.5 mph59%30.01 "HgN/A
8:50 PM63 °FOvercast.8 mph59%29.98 "HgN/A
8:20 PM64 °FOvercast.5 mph56%29.98 "HgN/A
7:50 PM64 °FOvercast.6 mph56%29.98 "HgN/A
7:20 PM64 °FPartly sunny.5 mph56%29.95 "HgN/A
6:50 PM66 °FPartly sunny.6 mph52%29.95 "HgN/A
6:20 PM68 °FScattered clouds.3 mph46%29.95 "HgN/A
5:50 PM68 °FScattered clouds.6 mph43%29.95 "HgN/A
5:20 PM68 °FBroken clouds.6 mph49%29.95 "HgN/A
4:50 PM68 °FBroken clouds.6 mph49%29.95 "HgN/A
4:20 PM70 °FPartly sunny.3 mph46%29.98 "HgN/A
3:50 PM68 °FPartly sunny.6 mph46%29.98 "HgN/A
3:20 PM68 °FPartly sunny.6 mph49%29.98 "HgN/A
Weather by CustomWeather, © 2015

See weather overviewHow to use our weather pages